[[{"header":{"parameterUnit":"m.s-1","parameterCategory":1,"la1":30.2991,"la2":30.254,"lo1":-89.0895,"lo2":-89.0444,"dy":0.0017,"dx":0.0017,"nx":28,"ny":28,"refTime":"2024-08-26T03:00:00:Z","depth":0,"parameterNumber":2,"parameterNumberName":"U-component_of_WINDS"},"data":[0,0,0,0,0,0,0,0,0,0,0,0,0,0,0,0,0,0,0,0,0,0,0,0,0,0,0,0,0,0,0,0,0,0,0,0,0,0,0,0,0,0,0,0,0,0,0,0,0,0,0,0,0,0,0,0,0,0,-1.0868,-1.0869,0,-1.0901,-1.0901,-1.0902,-1.0845,-1.0843,-1.0841,-1.0839,-1.0874,-1.0876,-1.0879,0,0,0,0,0,0,0,0,0,0,0,0,0,-1.0757,-1.0759,-1.0868,-1.0869,-1.0869,-1.0901,-1.0901,-1.0902,-1.0845,-1.0843,-1.084,-1.0838,-1.0873,-1.0876,-1.0879,0,0,0,0,0,0,0,0,0,0,0,0,0,-1.0799,-1.076,-1.0868,-1.0845,-1.0843,-1.0901,-1.0901,-1.0902,-1.0846,-1.0843,-1.084,-1.0837,-1.0872,-1.0876,-1.088,-1.0962,0,0,-1.0892,-1.0894,0,0,0,0,0,0,0,0,-1.0797,-1.0803,-1.0848,-1.0846,-1.0844,-1.0866,-1.0875,-1.0922,-1.0846,-1.0845,-1.0839,-1.0836,-1.0873,-1.0877,-1.089,-1.0964,-1.0965,-1.0892,-1.0895,-1.0896,-1.0898,0,0,0,0,0,0,0,-1.0794,-1.0801,-1.0881,-1.0848,-1.0846,-1.0832,-1.0835,-1.0883,-1.0875,-1.0845,-1.084,-1.0845,-1.0872,-1.0886,-1.089,-1.0966,-1.0892,-1.0896,-1.0898,-1.09,-1.111,-1.1113,0,0,0,0,0,0,-1.0794,-1.0799,-1.088,-1.0882,-1.0813,-1.0837,-1.084,-1.0862,-1.0874,-1.0873,-1.0847,-1.0842,-1.088,-1.0885,-1.0891,-1.099,-1.0896,-1.09,-1.0903,-1.1107,-1.1111,-1.1114,0,0,0,0,0,0,-1.0792,-1.0801,-1.0879,-1.084,-1.0848,-1.0842,-1.0867,-1.0864,-1.0878,-1.0876,-1.0875,-1.0863,-1.0878,-1.0885,-1.0945,-1.099,-1.0902,-1.0906,-1.1103,-1.1108,-1.1112,-1.1187,0,0,0,0,0,0,-1.0789,-1.0801,-1.0833,-1.0841,-1.0851,-1.0933,-1.087,-1.0867,-1.0885,-1.0878,-1.0891,-1.089,-1.0876,-1.0939,-1.0949,-1.0994,-1.0909,-1.1099,-1.1105,-1.1111,-1.1181,-1.1194,-1.1205,0,0,0,0,0,-1.0785,-1.0852,-1.0834,-1.0844,-1.089,-1.0935,-1.0941,-1.0924,-1.0889,-1.0921,-1.0919,-1.089,-1.0983,-1.0946,-1.0956,-1.1003,-1.1096,-1.1104,-1.111,-1.1175,-1.1191,-1.1205,0,0,0,0,0,0,-1.085,-1.0853,-1.0833,-1.0905,-1.092,-1.0926,-1.0965,-1.0941,-1.0967,-1.096,-1.0937,-1.0941,-1.1005,-1.101,-1.0968,-1.1084,-1.1034,-1.1043,-1.1079,-1.1095,-1.1107,-1.1105,-1.0912,0,0,0,0,0,-1.0873,-1.0909,-1.091,-1.0973,-1.0982,-1.0972,-1.0991,-1.0977,-1.0992,-1.0998,-1.1001,-1.1017,-1.105,-1.1072,-1.1102,-1.118,-1.1183,-1.1217,-1.123,-1.124,-1.1249,-1.1291,-1.1307,-1.1137,-1.1137,-1.1137,0,0,-1.092,-1.0926,-1.0951,-1.0987,-1.0997,-1.1035,-1.0978,-1.1021,-1.105,-1.1004,-1.1062,-1.1064,-1.108,-1.115,-1.1181,-1.1156,-1.1296,-1.1249,-1.1257,-1.1261,-1.13,-1.1317,-1.1331,-1.1142,-1.1141,-1.114,0,0,-1.1027,-1.1035,-1.1089,-1.11,-1.1116,-1.1109,-1.1122,-1.113,-1.1131,-1.1187,-1.1154,-1.1187,-1.1244,-1.1257,-1.1271,-1.1382,-1.1356,-1.1392,-1.1457,-1.1498,-1.1512,-1.1524,-1.1565,-1.158,-1.14,-1.1401,-1.1401,0,-1.1085,-1.1142,-1.112,-1.1166,-1.1183,-1.1143,-1.1198,-1.1209,-1.1234,-1.1247,-1.1218,-1.1288,-1.1296,-1.1369,-1.1396,-1.1408,-1.1423,-1.1392,-1.1512,-1.1523,-1.1534,-1.1573,-1.1588,-1.1405,-1.1405,-1.1404,-1.1404,0,-1.1212,-1.1252,-1.1294,-1.1319,-1.134,-1.1391,-1.1377,-1.1401,-1.1384,-1.138,-1.1438,-1.1446,-1.1477,-1.1492,-1.1476,-1.1563,-1.1547,-1.1515,-1.1465,-1.1555,-1.1591,-1.1606,-1.1412,-1.141,-1.1409,-1.1407,0,0,-1.1364,-1.1375,-1.1392,-1.1403,-1.1416,-1.1447,-1.1494,-1.1525,-1.1547,-1.1564,-1.1605,-1.1653,-1.1624,-1.164,-1.1624,-1.166,-1.1749,-1.1624,-1.1624,-1.1649,-1.1847,-1.1873,-1.189,-1.1731,-1.1733,-1.1736,-1.1846,0,-1.1472,-1.1555,-1.1537,-1.1619,-1.1656,-1.1617,-1.1659,-1.1672,-1.1669,-1.17,-1.1696,-1.1732,-1.1689,-1.1699,-1.1733,-1.1731,-1.1789,-1.1723,-1.177,-1.1772,-1.177,-1.1909,-1.1936,-1.2041,-1.186,-1.1862,-1.1864,0,-1.161,-1.1633,-1.1719,-1.1727,-1.1741,-1.178,-1.1806,-1.1835,-1.1849,-1.1844,-1.1862,-1.1839,-1.1887,-1.1833,-1.1899,-1.1855,-1.1872,-1.1874,-1.1878,-1.1884,-1.1825,-1.1921,-1.2073,-1.209,-1.1886,-1.1884,-1.1883,0,-1.1714,-1.1766,-1.1825,-1.1835,-1.1845,-1.1873,-1.1878,-1.1889,-1.1908,-1.1931,-1.1943,-1.1971,-1.1987,-1.2009,-1.1994,-1.1956,-1.2063,-1.2008,-1.2062,-1.2062,-1.2088,-1.2088,-1.2248,-1.2096,-1.2095,-1.2095,-1.2095,0,-1.1838,-1.1893,-1.1872,-1.1909,-1.1969,-1.1946,-1.2006,-1.2007,-1.2016,-1.2052,-1.2019,-1.2054,-1.2031,-1.2063,-1.2052,-1.2109,-1.2116,-1.2114,-1.2111,-1.2119,-1.2119,-1.2132,-1.2126,-1.2099,-1.2098,-1.2097,-1.2097,0,-1.1967,-1.1955,-1.2016,-1.202,-1.2022,-1.2066,-1.207,-1.2103,-1.2097,-1.2143,-1.2152,-1.2143,-1.2179,-1.2166,-1.2205,-1.2197,-1.2271,-1.2257,-1.2267,-1.2264,-1.2319,-1.2315,-1.2496,-1.2519,-1.2349,-1.2351,-1.2352,0,-1.2048,-1.2089,-1.2097,-1.2119,-1.2127,-1.2162,-1.2181,-1.216,-1.2181,-1.22,-1.2232,-1.2265,-1.2291,-1.2351,-1.2348,-1.2377,-1.2365,-1.2426,-1.237,-1.2376,-1.2369,-1.2368,-1.2372,-1.2439,-1.2441,-1.2442,-1.2443,0,-1.2194,-1.2186,-1.2215,-1.2243,-1.2267,-1.2287,-1.2305,-1.2324,-1.2304,-1.233,-1.2367,-1.2387,-1.2426,-1.246,-1.2486,-1.2491,-1.2465,-1.2461,-1.2475,-1.2485,-1.249,-1.249,-1.23,-1.2458,-1.2456,-1.2455,-1.2454,-1.2454,-1.2303,-1.2338,-1.235,-1.2383,-1.2394,-1.2411,-1.2443,-1.2441,-1.2471,-1.2502,-1.2486,-1.253,-1.2541,-1.2574,-1.2583,-1.2616,-1.2593,-1.2613,-1.2619,-1.2625,-1.2633,-1.2482,-1.2621,-1.262,-1.262,-1.2619,-1.2619,0,-1.245,-1.2455,-1.2486,-1.2511,-1.2538,-1.2509,-1.2526,-1.2551,-1.2589,-1.2602,-1.2628,-1.267,-1.2703,-1.2702,-1.2732,-1.2759,-1.2747,-1.2768,-1.2767,-1.2769,-1.2651,-1.2637,-1.2777,-1.2777,-1.2776,-1.2776,-1.2776,-1.2776,-1.2529,-1.2588,-1.2581,-1.2644,-1.2648,-1.269,-1.2703,-1.2718,-1.2729,-1.2778,-1.2805,-1.2803,-1.2811,-1.2841,-1.2869,-1.2868,-1.2882,-1.2907,-1.2902,-1.2793,-1.2777,-1.2762,-1.2749,-1.291,-1.291,-1.3017,-1.3018,-1.3019]},{"header":{"parameterUnit":"m.s-1","parameterCategory":1,"la1":30.2991,"la2":30.254,"lo1":-89.0895,"lo2":-89.0444,"dy":0.0017,"dx":0.0017,"nx":28,"ny":28,"refTime":"2024-08-26T03:00:00:Z","depth":0,"parameterNumber":3,"parameterNumberName":"V-component_of_WINDS"},"data":[0,0,0,0,0,0,0,0,0,0,0,0,0,0,0,0,0,0,0,0,0,0,0,0,0,0,0,0,0,0,0,0,0,0,0,0,0,0,0,0,0,0,0,0,0,0,0,0,0,0,0,0,0,0,0,0,0,0,-3.718,-3.7182,0,-3.729,-3.7291,-3.7293,-3.7264,-3.7262,-3.7259,-3.7257,-3.7366,-3.7371,-3.7376,0,0,0,0,0,0,0,0,0,0,0,0,0,-3.6942,-3.6947,-3.718,-3.7182,-3.7183,-3.729,-3.7292,-3.7293,-3.7264,-3.7261,-3.7259,-3.7256,-3.7364,-3.737,-3.7376,0,0,0,0,0,0,0,0,0,0,0,0,0,-3.7048,-3.6948,-3.718,-3.7182,-3.7183,-3.729,-3.7292,-3.7293,-3.7265,-3.7261,-3.7258,-3.7255,-3.7362,-3.737,-3.7377,-3.7488,0,0,-3.7399,-3.7403,0,0,0,0,0,0,0,0,-3.7042,-3.7057,-3.718,-3.7182,-3.7183,-3.726,-3.7247,-3.7358,-3.7265,-3.7234,-3.7257,-3.7254,-3.7333,-3.7343,-3.737,-3.7493,-3.7497,-3.74,-3.7404,-3.7408,-3.741,0,0,0,0,0,0,0,-3.7035,-3.7052,-3.7224,-3.7182,-3.7184,-3.7176,-3.7187,-3.7268,-3.73,-3.7236,-3.7234,-3.7248,-3.7333,-3.7363,-3.7373,-3.7499,-3.74,-3.7406,-3.7411,-3.7414,-3.7718,-3.7721,0,0,0,0,0,0,-3.7027,-3.7046,-3.722,-3.7227,-3.7103,-3.7183,-3.7196,-3.7239,-3.7299,-3.7305,-3.7251,-3.7246,-3.7352,-3.7364,-3.7376,-3.751,-3.7408,-3.7414,-3.7419,-3.7714,-3.7718,-3.7722,0,0,0,0,0,0,-3.7022,-3.7043,-3.7216,-3.7136,-3.7158,-3.719,-3.7239,-3.7243,-3.7272,-3.731,-3.7315,-3.7276,-3.735,-3.7366,-3.746,-3.7513,-3.7418,-3.7424,-3.771,-3.7715,-3.772,-3.7778,0,0,0,0,0,0,-3.7015,-3.7041,-3.7084,-3.7137,-3.7162,-3.7299,-3.7242,-3.7247,-3.7286,-3.7281,-3.7335,-3.7341,-3.7349,-3.745,-3.7468,-3.7522,-3.743,-3.7705,-3.7712,-3.7719,-3.7772,-3.7785,-3.7796,0,0,0,0,0,-3.7007,-3.7095,-3.7087,-3.7108,-3.7217,-3.7302,-3.7316,-3.7325,-3.729,-3.7333,-3.7358,-3.7339,-3.7505,-3.7459,-3.748,-3.7537,-3.7702,-3.771,-3.7718,-3.7766,-3.7782,-3.7796,0,0,0,0,0,0,-3.7046,-3.7102,-3.7093,-3.7202,-3.7248,-3.7297,-3.7352,-3.7342,-3.7397,-3.739,-3.7398,-3.741,-3.7507,-3.7531,-3.748,-3.7647,-3.7598,-3.7611,-3.7628,-3.7643,-3.7655,-3.7647,-3.7436,0,0,0,0,0,-3.7067,-3.7133,-3.7179,-3.727,-3.7294,-3.7319,-3.7357,-3.7359,-3.7407,-3.7426,-3.7457,-3.7502,-3.7564,-3.7605,-3.7665,-3.7775,-3.7786,-3.7824,-3.7837,-3.7847,-3.7857,-3.7918,-3.7935,-3.7749,-3.7749,-3.7749,0,0,-3.7112,-3.7151,-3.7192,-3.7279,-3.7315,-3.7382,-3.7335,-3.7408,-3.7458,-3.7436,-3.7528,-3.7552,-3.7603,-3.7707,-3.7753,-3.773,-3.7911,-3.7857,-3.7865,-3.787,-3.7928,-3.7945,-3.7961,-3.7755,-3.7754,-3.7753,0,0,-3.7228,-3.7264,-3.7344,-3.7382,-3.7437,-3.7454,-3.7473,-3.7525,-3.7541,-3.7633,-3.7618,-3.7676,-3.7784,-3.7821,-3.7854,-3.7985,-3.797,-3.8004,-3.8068,-3.8127,-3.8141,-3.8154,-3.82,-3.8217,-3.8014,-3.8015,-3.8015,0,-3.7276,-3.7378,-3.7387,-3.7461,-3.75,-3.7485,-3.7566,-3.7601,-3.7672,-3.7699,-3.7672,-3.7807,-3.784,-3.7952,-3.7984,-3.8011,-3.8033,-3.7997,-3.8139,-3.8152,-3.8164,-3.8208,-3.8226,-3.8018,-3.8018,-3.8017,-3.8017,0,-3.7434,-3.7505,-3.7562,-3.7634,-3.7679,-3.7756,-3.7776,-3.782,-3.7819,-3.7838,-3.7932,-3.7972,-3.8039,-3.8066,-3.8065,-3.8178,-3.8161,-3.8137,-3.8087,-3.8185,-3.8227,-3.8244,-3.8024,-3.8022,-3.8021,-3.802,0,0,-3.7576,-3.7652,-3.7674,-3.7706,-3.7766,-3.7821,-3.7897,-3.7964,-3.8002,-3.8052,-3.8115,-3.8207,-3.8185,-3.8222,-3.8226,-3.8277,-3.8378,-3.8246,-3.8247,-3.8269,-3.8504,-3.8522,-3.8542,-3.8369,-3.8372,-3.8375,-3.85,0,-3.7697,-3.7833,-3.7844,-3.7966,-3.8031,-3.8018,-3.8085,-3.8128,-3.8148,-3.8206,-3.8227,-3.8292,-3.8258,-3.828,-3.8331,-3.8355,-3.8425,-3.8346,-3.8427,-3.843,-3.8414,-3.8564,-3.8583,-3.8699,-3.8516,-3.8519,-3.8521,0,-3.7856,-3.7912,-3.8041,-3.8093,-3.8121,-3.8181,-3.8243,-3.8299,-3.8348,-3.8359,-3.8401,-3.8398,-3.8475,-3.8424,-3.853,-3.8476,-3.851,-3.8527,-3.8532,-3.8539,-3.8481,-3.8575,-3.8737,-3.8754,-3.8547,-3.8545,-3.8543,0,-3.7947,-3.8055,-3.8146,-3.8174,-3.8237,-3.8279,-3.8307,-3.8353,-3.8393,-3.8447,-3.8473,-3.8535,-3.8569,-3.8617,-3.863,-3.8592,-3.8737,-3.8686,-3.8747,-3.8747,-3.8777,-3.8775,-3.8947,-3.88,-3.88,-3.8799,-3.8799,0,-3.808,-3.8159,-3.8188,-3.8244,-3.8332,-3.8343,-3.843,-3.8455,-3.8497,-3.8557,-3.8549,-3.8605,-3.8619,-3.8678,-3.8688,-3.8775,-3.879,-3.88,-3.8802,-3.8801,-3.88,-3.8823,-3.8815,-3.8804,-3.8803,-3.8802,-3.8801,0,-3.8196,-3.8218,-3.8317,-3.8369,-3.8384,-3.8447,-3.849,-3.8544,-3.8563,-3.8639,-3.8658,-3.8687,-3.8756,-3.8774,-3.8856,-3.8863,-3.8965,-3.8959,-3.8949,-3.8949,-3.9008,-3.9002,-3.92,-3.9227,-3.9063,-3.9065,-3.9066,0,-3.8279,-3.834,-3.8399,-3.844,-3.847,-3.8535,-3.8576,-3.8589,-3.8632,-3.8693,-3.8739,-3.8808,-3.8863,-3.8973,-3.9001,-3.9064,-3.9059,-3.9124,-3.9068,-3.9065,-3.906,-3.9056,-3.9062,-3.9134,-3.9136,-3.9138,-3.9139,0,-3.8425,-3.8433,-3.8494,-3.8558,-3.8608,-3.8659,-3.8708,-3.8741,-3.8761,-3.881,-3.8881,-3.8924,-3.9008,-3.9075,-3.9139,-3.9166,-3.9156,-3.9156,-3.9174,-3.9173,-3.9164,-3.9169,-3.8977,-3.9151,-3.915,-3.9149,-3.9149,-3.9148,-3.8527,-3.8581,-3.8631,-3.8698,-3.8737,-3.8783,-3.8836,-3.8863,-3.8923,-3.8993,-3.8997,-3.9074,-3.9122,-3.9206,-3.9237,-3.9297,-3.9277,-3.9302,-3.9309,-3.9314,-3.932,-3.9155,-3.9308,-3.9308,-3.9308,-3.9307,-3.9307,0,-3.8672,-3.8704,-3.8766,-3.8836,-3.8889,-3.8876,-3.893,-3.8974,-3.9043,-3.9089,-3.9144,-3.9225,-3.9291,-3.9325,-3.939,-3.9431,-3.9428,-3.9448,-3.9444,-3.9451,-3.9334,-3.9312,-3.9449,-3.9449,-3.9449,-3.9449,-3.9449,-3.9449,-3.8754,-3.8844,-3.8858,-3.8967,-3.8998,-3.9075,-3.9107,-3.9149,-3.9186,-3.9278,-3.9333,-3.9355,-3.9396,-3.9464,-3.9524,-3.9532,-3.9556,-3.9578,-3.9584,-3.9473,-3.9459,-3.9445,-3.9425,-3.9583,-3.9583,-3.9696,-3.9697,-3.9698]}]]